Location: Palmerston North
(40.3500°S, 175.6170°E)
Time: 00:49:31
(UTC+12:00)

Cosmos 2333 Rocket - Pass Details

Date: 24 January 2019
Orbit: 837 x 865 km, 70.8° (Epoch: 19 April)

Event Time Altitude Azimuth Distance (km) Brightness Sun altitude
Exits shadow 23:35:09 61° 53° (NE) 987 2.2 -24.8°
Maximum altitude 23:35:29 62° 71° (ENE) 978 2.2 -24.8°
Drops below altitude 10° 23:41:14 10° 150° (SSE) 2,533 5.0 -25.3°
Sets 23:43:44 0° 153° (SSE) 3,474 5.9 -25.5°
